Wind_Speed
12 12 12 12 12 12 12 12 11 11 10 9 9 8 8 7 6 6 6 6 6 6 7 7 8 8 8 9 9 9 9 9 8 8 7 7 7 7 7 6 6 6 5 5 5 5 5 5 6 6 6 7 8 8 7 7 7 7 6 5 4 4 5 5 5 7 7 8 9 9 10 9 9 11 12 13 12 11 9 9 11 14 16 17 18 17 15 12
13 14 14 14 14 13 13 12 12 11 11 10 10 9 8 8 7 7 7 7 7 8 8 8 9 9 9 9 9 9 8 9 9 8 7 7 6 6 5 5 4 4 4 4 4 4 4 5 5 6 6 6 7 6 6 6 6 6 5 4 4 4 5 4 5 7 8 8 8 9 10 11 11 12 12 14 13 12 10 10 13 15 16 18 18 17 15 14
14 15 15 15 15 14 13 13 12 12 11 11 11 10 9 9 8 8 8 9 9 9 9 10 10 10 10 10 9 9 8 9 9 7 6 6 5 5 4 4 4 3 3 3 3 3 4 4 5 5 6 6 6 6 6 6 6 6 6 5 5 5 5 6 6 8 8 8 8 9 10 11 13 14 14 16 15 12 12 12 14 15 16 18 19 18 16 14
16 16 16 16 15 15 14 13 13 12 12 12 12 11 11 10 10 10 10 10 10 11 11 11 11 11 11 11 10 9 8 8 8 8 7 5 5 5 5 5 4 4 3 3 3 3 3 4 5 6 7 7 7 8 8 8 8 7 7 7 6 6 7 7 8 9 10 9 9 10 11 12 14 16 16 18 17 14 13 14 14 16 16 18 19 17 15 14
17 17 17 17 16 15 14 14 14 14 13 13 13 13 12 12 12 12 12 12 12 12 12 12 12 12 11 11 10 9 9 8 8 7 6 6 6 6 5 5 5 5 5 4 4 5 5 6 7 8 8 9 9 10 10 10 10 10 9 9 8 8 8 10 11 12 12 12 12 12 14 14 16 17 17 18 18 16 16 16 17 17 17 17 17 15 13 13
18 18 18 17 17 16 15 15 14 15 14 14 14 14 14 13 13 13 13 13 14 13 14 13 13 13 12 11 10 9 8 7 7 7 7 7 7 7 7 7 7 7 6 6 7 7 8 9 9 10 10 11 11 12 12 12 12 11 10 10 11 11 11 12 13 13 13 14 14 14 16 16 18 19 18 18 18 18 19 19 19 19 17 16 16 15 14 12
19 19 19 18 17 17 16 16 15 16 15 16 16 15 15 15 15 15 15 15 15 15 15 15 14 14 13 12 11 10 9 9 10 9 9 9 9 8 8 8 9 9 9 9 10 10 11 11 12 12 12 12 13 13 14 14 14 14 13 13 14 15 14 14 15 15 15 15 15 18 19 18 19 20 19 19 19 17 18 20 20 19 16 14 15 16 16 14
20 19 19 18 18 17 17 17 17 17 17 17 17 17 17 17 17 17 17 17 17 17 17 16 16 15 14 13 12 11 9 10 12 11 10 10 10 10 10 10 11 11 11 12 12 12 13 13 13 14 14 14 14 15 15 16 17 17 16 15 16 16 16 16 16 16 17 18 18 21 21 19 20 22 21 20 19 17 16 16 16 16 14 13 15 17 17 17
20 20 20 19 18 18 18 18 18 18 18 18 18 18 18 18 19 19 19 19 19 19 18 18 17 16 15 14 13 12 11 12 13 12 12 11 12 12 12 12 13 13 13 14 14 13 13 14 14 14 15 15 16 16 17 18 18 18 17 17 17 17 17 17 17 17 18 19 20 22 21 19 21 23 22 19 16 14 12 12 13 14 14 15 17 18 18 18
22 21 20 20 19 19 19 20 20 20 20 20 20 20 20 20 20 21 21 21 20 20 20 19 18 17 16 15 15 12 11 13 13 13 13 13 13 14 14 15 15 15 15 15 15 14 15 14 15 15 16 17 17 17 17 18 18 18 19 19 18 19 18 18 18 17 18 19 20 22 21 20 22 21 19 17 14 13 13 14 15 16 17 18 20 21 21 21
23 22 22 21 21 21 21 21 22 21 21 21 21 21 21 22 22 22 22 22 22 21 21 20 19 18 17 17 15 13 14 15 14 15 15 15 16 16 16 16 16 16 15 15 16 16 16 16 17 17 17 17 17 17 18 18 19 19 19 20 20 20 19 19 19 18 19 19 19 21 20 20 20 19 17 16 15 15 16 17 18 19 21 22 23 24 24 24
24 24 23 23 23 23 23 23 23 23 23 23 23 23 23 23 23 23 23 23 22 22 21 21 20 19 19 18 15 14 16 16 16 17 17 17 17 17 17 17 16 16 16 17 17 17 18 18 18 18 18 18 18 18 19 19 19 20 20 21 21 21 21 20 19 18 18 17 17 18 20 19 19 18 17 16 16 16 18 19 20 22 23 25 26 26 27 26
26 25 25 25 25 25 25 25 25 24 24 24 24 24 25 25 25 25 24 24 23 23 22 21 20 20 20 19 15 16 18 17 17 18 18 18 18 18 17 17 17 17 18 18 19 19 20 20 20 20 19 19 19 20 20 21 21 21 23 24 24 24 22 19 17 17 18 19 18 18 20 20 19 19 18 17 17 18 19 20 22 23 25 26 27 28 28 28
27 27 27 27 27 27 27 26 26 26 25 25 26 26 26 26 26 26 25 24 23 23 22 22 21 21 22 19 16 17 18 18 18 18 19 19 19 19 18 19 19 19 19 20 20 20 21 20 20 20 19 19 20 21 22 22 22 22 24 25 25 24 21 18 18 19 19 19 18 17 19 19 17 19 19 19 19 20 21 22 23 24 25 27 28 29 30 29
29 29 28 28 28 28 28 28 28 27 27 27 27 27 27 27 27 26 25 24 23 23 22 22 22 22 23 20 18 19 19 20 20 20 20 20 19 19 19 19 19 19 20 20 20 20 20 20 20 20 20 21 21 22 23 23 22 23 24 24 24 23 21 20 20 20 19 18 18 16 16 16 16 18 19 19 19 20 22 23 24 26 27 28 29 30 31 31
29 29 29 29 29 29 29 29 29 28 28 28 28 28 27 27 26 26 25 24 23 23 23 24 23 23 24 21 19 19 19 20 20 20 20 19 19 19 19 20 20 20 21 21 21 22 22 22 22 22 22 22 21 22 22 23 24 25 25 24 22 21 21 22 22 22 21 20 20 19 18 18 19 21 21 21 21 20 22 23 24 26 28 29 30 31 32 32
30 30 30 30 30 30 30 30 29 29 28 28 29 28 27 27 26 26 25 24 24 24 24 25 24 25 25 22 20 19 19 21 21 21 21 20 20 20 20 20 20 20 20 21 21 21 22 22 22 22 21 20 22 23 22 23 25 25 23 21 20 20 22 24 25 25 24 22 21 22 23 23 22 22 24 24 25 26 26 27 28 29 30 31 32 32 32 31
32 32 31 31 31 31 31 31 30 29 29 29 29 28 27 27 26 26 26 26 25 25 26 26 25 26 25 22 20 20 19 20 20 19 19 18 18 18 18 19 19 20 20 21 22 22 22 22 23 22 22 24 25 25 24 24 24 22 20 21 22 24 25 26 26 25 25 25 25 25 27 26 24 25 27 27 29 30 30 30 30 30 31 31 31 31 30 28
32 32 32 32 32 32 31 31 29 29 29 29 28 28 27 27 27 28 27 27 27 26 26 25 24 25 24 21 20 20 20 20 20 20 20 20 21 22 23 23 24 24 24 25 25 25 25 25 26 26 27 27 26 25 25 22 20 20 22 25 27 27 27 28 27 25 25 27 28 28 29 29 27 26 28 29 29 30 30 30 30 30 30 29 29 29 27 24
32 32 31 32 32 32 31 30 29 29 29 29 29 28 28 28 28 29 28 28 28 28 28 27 27 27 26 26 25 25 25 25 25 25 25 25 25 25 26 26 27 27 27 27 27 27 27 28 30 30 28 26 24 23 22 21 21 24 26 27 28 28 29 29 26 25 26 29 31 29 30 31 28 27 27 29 29 29 29 29 30 29 29 28 27 25 23 21
32 32 32 32 32 32 32 31 30 30 30 30 30 30 29 29 29 30 29 29 29 29 29 30 31 30 29 28 28 28 28 28 28 27 27 27 26 27 28 28 29 29 29 28 28 28 28 31 32 29 26 24 24 24 23 24 26 27 27 27 27 28 30 29 25 25 26 29 31 28 28 29 26 26 26 27 27 28 28 28 29 28 27 25 23 22 21 22
32 33 33 33 33 33 33 32 32 31 31 31 31 31 31 30 30 30 30 32 31 30 31 31 32 32 30 30 30 30 30 30 30 29 28 29 29 29 30 31 30 30 30 29 28 29 31 34 31 25 24 24 24 24 25 26 27 27 27 26 27 28 29 27 24 23 23 25 27 25 27 28 26 27 28 28 28 28 28 27 26 25 23 21 20 21 22 22
34 34 34 34 34 34 34 33 33 32 32 32 32 32 31 31 31 30 31 34 35 33 33 33 34 34 32 32 32 32 33 32 31 31 30 30 31 31 32 33 33 33 32 32 31 31 32 31 25 20 21 22 22 22 23 24 25 26 25 26 29 29 27 25 23 22 22 24 26 27 30 31 28 28 28 27 28 27 26 25 23 22 20 20 20 21 20 20
36 36 35 35 34 35 35 34 34 33 32 33 32 32 31 30 30 30 30 33 38 38 35 35 36 36 34 33 34 34 34 34 33 33 32 32 33 33 34 35 34 35 34 33 32 33 33 30 27 24 23 23 24 24 25 26 28 28 27 29 32 30 28 27 25 23 24 25 25 25 26 26 23 21 20 20 20 20 19 19 18 18 18 18 18 18 18 18
37 36 37 36 35 35 36 36 34 32 33 33 32 31 30 29 29 28 29 31 39 41 37 37 37 37 36 35 35 35 36 37 36 34 34 34 35 35 36 36 36 36 35 32 32 33 33 30 29 28 25 25 25 25 25 26 28 28 28 29 28 26 24 23 21 18 19 19 17 15 12 9 6 5 5 7 8 9 10 11 13 14 15 16 17 18 19 19
38 38 38 37 37 37 37 36 33 32 34 32 31 30 28 29 27 26 27 27 38 45 39 37 35 33 34 33 33 33 34 37 36 35 36 36 37 37 37 37 37 35 32 30 29 31 31 28 26 24 21 21 21 22 22 23 26 26 25 24 22 20 18 17 15 14 13 11 12 12 9 9 13 13 13 13 11 11 12 13 14 16 17 19 20 20 20 20
38 39 39 38 38 38 37 35 33 33 34 31 29 29 27 28 25 25 23 17 27 38 34 32 31 29 30 28 27 27 28 30 29 30 34 35 37 38 36 37 36 33 31 28 26 27 27 23 20 19 17 16 17 18 17 17 21 22 21 19 18 17 15 13 14 14 14 15 16 17 16 19 21 18 15 14 14 15 17 16 16 17 18 20 21 22 22 21
37 37 38 38 38 38 37 35 35 35 33 30 29 28 28 27 25 23 15 5 13 22 19 19 21 22 25 24 23 24 26 27 23 23 26 28 31 33 33 35 33 30 29 27 26 26 24 21 19 18 17 16 16 14 13 13 16 17 16 16 16 15 13 13 13 14 15 15 13 13 15 14 11 8 6 7 12 14 14 13 13 14 16 18 20 22 23 21
31 32 32 34 35 36 35 34 34 34 33 32 31 30 29 27 25 19 9 6 15 19 14 13 14 16 18 19 19 21 25 27 23 21 20 20 23 25 26 27 27 26 26 27 26 25 23 22 21 20 18 17 15 14 14 13 13 13 13 13 13 12 11 11 11 11 12 11 11 14 16 11 8 7 4 4 7 7 5 6 8 10 13 16 20 22 23 21
31 31 30 32 34 34 33 33 33 32 33 33 30 30 27 25 24 15 7 11 17 14 12 13 16 17 16 18 19 20 23 25 25 23 20 18 18 19 20 20 20 21 22 23 22 22 22 22 20 19 17 16 14 13 13 12 11 12 11 11 10 10 10 10 10 10 8 7 9 13 17 14 6 2 4 5 5 6 3 3 6 9 12 16 20 22 23 21
36 35 33 34 35 33 33 33 32 32 32 31 29 28 26 25 24 13 7 18 18 12 15 17 16 17 17 19 21 21 23 24 23 22 20 20 18 17 17 18 18 17 18 20 18 18 19 19 18 18 16 15 15 14 13 12 11 10 9 9 9 7 8 8 8 6 4 4 3 5 12 17 12 4 7 8 9 7 3 7 7 9 11 14 18 20 21 20
37 36 35 35 35 33 33 32 31 31 31 30 28 29 30 25 22 22 21 20 13 11 18 18 16 17 17 20 22 21 22 22 22 21 20 19 18 16 16 16 16 13 13 16 15 15 16 15 15 15 15 16 16 16 16 15 14 11 10 9 6 2 2 3 3 2 5 6 4 5 8 13 18 16 9 8 10 8 9 9 8 10 12 15 17 18 19 18
35 35 35 35 35 34 33 32 32 32 32 31 27 30 33 21 18 34 37 25 12 8 12 14 18 20 20 22 24 22 22 21 21 21 19 18 17 16 16 15 16 14 10 10 10 10 10 10 12 14 15 16 17 18 17 15 13 12 12 11 8 2 3 1 3 2 4 6 5 7 7 9 15 16 12 13 13 12 12 10 11 13 14 16 18 17 18 17
34 35 35 34 35 35 35 35 35 35 35 32 28 30 31 20 18 31 35 31 24 14 9 11 16 21 22 22 22 21 21 20 20 20 19 19 19 18 19 18 17 17 14 11 9 8 7 6 6 9 10 12 14 16 16 14 11 9 10 12 11 7 3 3 3 2 2 3 4 5 5 5 6 5 4 7 10 12 14 14 14 15 15 17 19 19 19 19
34 35 36 36 37 36 36 36 35 35 35 31 29 30 30 27 26 24 23 29 31 23 17 12 13 18 22 23 21 21 20 19 20 20 19 19 19 19 19 19 18 18 17 14 10 9 9 8 7 7 8 8 9 11 15 16 13 11 11 13 14 13 10 7 5 5 5 6 6 8 10 14 17 19 18 15 14 14 14 13 12 13 15 17 18 19 20 20
36 37 37 38 40 37 35 36 35 35 35 32 30 33 35 34 32 26 21 23 27 28 25 19 16 18 21 23 23 22 22 20 19 19 19 18 19 20 19 18 18 17 16 14 12 9 8 7 8 9 10 10 9 9 11 14 12 10 12 13 13 12 12 9 6 7 6 5 7 9 14 22 24 25 23 18 15 13 10 10 9 10 14 15 16 18 18 18
39 39 39 40 40 39 37 37 36 34 36 35 35 38 40 40 38 34 27 22 22 28 29 24 21 20 20 21 23 24 23 21 19 18 18 16 15 17 19 17 17 17 15 15 15 13 10 8 7 9 10 10 10 9 9 11 11 11 11 10 9 8 8 8 4 4 2 3 7 9 15 21 18 16 17 14 13 11 7 7 7 9 12 13 14 14 13 13
39 39 40 40 39 40 39 36 35 34 34 35 39 40 41 42 41 38 34 27 22 26 30 28 24 21 19 19 20 22 22 21 19 16 16 16 13 11 12 13 14 14 14 16 16 15 13 10 9 11 12 11 12 12 11 11 13 15 15 12 10 6 4 5 4 2 2 2 5 9 15 22 20 18 18 14 10 8 5 6 9 10 11 11 13 15 15 16
38 38 40 41 38 38 38 37 36 34 34 36 39 40 41 43 41 38 37 32 25 24 28 29 26 24 21 19 19 20 20 20 19 16 15 15 13 10 11 12 12 11 13 15 18 17 14 12 9 12 16 16 16 18 17 18 18 17 17 15 14 11 7 8 9 6 4 2 5 9 12 19 21 18 15 10 9 10 8 10 12 12 13 14 16 19 20 21
37 38 41 41 39 38 38 38 37 35 37 39 41 40 39 41 41 40 39 36 31 28 27 28 28 27 24 21 20 20 20 20 19 17 15 13 12 10 10 11 12 11 11 13 17 18 18 16 12 12 16 18 19 19 17 17 15 14 15 14 15 14 12 12 14 15 12 3 2 4 9 23 28 17 9 9 12 14 12 14 15 13 15 17 18 21 22 21
38 38 41 40 38 38 38 37 38 37 39 41 43 42 40 39 39 39 39 37 35 32 29 27 28 28 26 24 23 22 21 20 18 17 15 14 14 12 10 11 11 11 11 13 17 19 19 19 17 16 18 20 19 17 15 13 12 13 14 15 16 17 16 11 8 16 20 12 10 7 7 30 39 24 15 17 22 23 19 19 18 15 17 20 21 22 21 19
41 42 43 41 39 39 39 41 41 40 40 43 44 43 41 40 39 37 36 35 34 34 32 29 28 27 25 25 24 24 21 18 16 15 14 15 17 15 14 13 12 13 14 15 17 19 19 18 18 17 18 18 18 17 17 16 17 18 19 21 22 20 21 17 9 15 19 17 22 16 9 32 46 35 28 27 27 27 22 19 19 18 20 21 21 21 19 18
42 43 43 41 41 40 41 44 46 45 44 44 44 42 40 40 39 36 34 33 33 34 34 32 31 28 25 24 24 22 20 17 15 16 16 17 18 19 18 16 15 15 17 17 18 19 18 16 15 16 16 18 20 22 23 22 23 24 25 27 26 23 26 25 22 24 19 16 20 11 7 31 45 37 34 29 23 22 20 21 21 17 16 17 18 18 16 16
42 42 42 41 41 41 44 49 52 50 48 45 42 39 38 37 37 35 33 31 32 34 35 34 32 29 25 24 23 21 19 17 15 16 18 18 20 22 22 21 19 18 18 17 17 18 16 13 13 11 8 10 14 16 19 23 24 24 25 24 23 24 26 26 28 26 20 25 25 9 10 34 41 35 34 28 21 20 20 20 20 17 17 18 18 16 14 18
42 42 42 43 43 43 46 51 51 49 48 47 42 36 33 33 33 32 31 29 30 33 33 30 28 26 25 24 23 21 19 18 15 15 17 21 23 24 23 23 23 22 19 19 21 21 17 17 18 13 7 7 9 7 9 15 17 17 20 21 21 23 24 27 30 24 20 28 29 20 26 40 41 39 38 32 29 28 24 22 23 22 22 22 18 17 20 25
37 38 39 40 41 42 45 46 46 45 46 45 40 34 32 31 29 28 27 28 29 31 33 30 25 23 22 22 23 22 21 21 19 18 21 23 23 22 22 23 24 23 22 21 23 22 18 19 23 22 21 22 23 19 15 17 19 21 24 25 26 27 26 27 28 28 27 26 26 35 42 41 42 45 41 38 38 36 32 29 26 25 24 21 24 28 28 26
30 30 31 32 33 36 41 43 44 42 40 42 41 37 34 32 29 26 26 28 28 29 31 32 29 26 24 23 23 22 23 23 23 25 26 25 24 22 21 22 22 23 23 21 21 21 20 23 26 28 29 33 36 33 29 28 29 31 32 33 35 33 32 32 31 34 34 23 25 43 44 35 40 45 40 39 40 38 39 37 30 26 25 29 32 31 29 26
30 28 26 25 24 26 32 39 44 37 28 31 36 35 33 34 31 27 26 27 28 28 28 29 31 29 26 23 22 22 22 23 25 28 28 27 25 24 23 24 24 25 25 24 25 26 25 29 33 32 32 37 39 36 33 31 31 33 33 35 38 38 38 38 36 39 39 32 36 48 44 37 43 44 39 39 39 40 42 38 31 28 31 32 32 31 32 31
30 30 28 27 25 23 23 30 38 36 26 23 25 25 27 29 28 27 26 25 26 27 28 29 31 29 24 22 22 22 23 23 25 27 26 25 24 24 25 26 26 27 27 26 27 27 27 32 34 31 31 37 38 35 33 31 31 33 34 36 41 43 40 39 40 44 44 43 47 49 44 45 48 46 43 43 43 44 40 33 31 33 32 32 33 34 34 32
27 28 28 27 28 27 24 25 29 31 29 25 23 23 24 25 25 26 27 27 27 27 28 30 30 27 23 23 24 26 28 28 27 27 26 25 26 26 26 26 26 25 25 25 25 25 27 30 31 29 29 34 38 35 31 29 29 31 34 39 45 45 41 41 45 47 46 46 48 46 45 49 49 45 43 44 45 43 35 32 34 33 32 34 35 35 35 33
28 28 28 28 28 28 28 27 27 28 28 28 28 28 27 27 27 26 25 28 30 29 29 30 29 27 26 27 30 32 32 29 27 26 24 25 26 25 25 26 26 24 24 25 24 25 28 30 31 28 25 31 37 31 24 25 25 27 37 47 49 47 44 46 48 47 46 46 43 41 44 47 46 42 38 38 40 39 35 34 33 32 34 36 37 37 36 34
31 32 32 31 31 30 30 30 29 30 32 31 31 31 29 29 29 27 27 28 30 30 30 30 29 29 29 31 32 30 27 25 24 23 22 23 25 25 25 26 27 27 27 26 26 27 29 29 30 26 22 28 33 27 23 21 16 23 43 52 47 45 45 46 46 45 44 43 40 40 42 42 40 37 36 34 35 34 34 33 32 34 37 38 38 38 35 33
Wind_Direction
205 201 198 195 193 192 192 193 195 197 199 202 205 209 213 216 224 233 242 252 258 263 267 271 273 276 277 279 280 281 283 283 279 278 275 271 273 275 272 268 268 271 272 272 276 282 288 293 295 297 298 298 299 299 300 299 298 300 305 318 320 306 298 294 288 282 277 279 282 284 286 290 286 285 289 293 295 296 298 294 282 274 276 280 284 288 295 302
210 205 201 199 197 197 200 203 206 208 209 211 213 216 222 228 237 247 254 262 268 271 275 276 278 280 280 281 282 281 281 280 279 279 275 271 268 265 266 265 265 270 276 283 289 297 303 307 309 309 310 312 312 311 311 310 309 310 318 329 320 314 315 303 289 282 281 281 282 284 286 290 288 286 288 290 290 291 290 278 268 267 271 275 279 285 293 296
215 210 207 204 204 206 208 211 214 216 217 218 219 224 229 236 245 254 261 268 273 276 278 280 282 283 283 283 282 281 278 276 278 277 272 268 257 246 249 260 266 272 279 293 304 311 316 319 318 318 320 320 318 316 316 315 313 314 316 317 314 316 310 294 285 284 285 283 279 278 278 281 284 287 292 292 290 290 288 277 266 264 264 267 276 283 287 289
218 214 212 210 211 213 214 217 220 222 223 224 226 230 235 242 250 258 265 270 275 278 280 282 284 284 285 285 284 282 276 272 274 271 265 249 235 240 254 260 262 269 276 285 295 298 305 306 304 308 311 309 307 306 306 304 303 304 304 304 305 300 293 287 283 283 284 283 278 274 270 272 279 287 292 292 290 288 286 281 273 268 263 264 271 276 277 279
220 217 215 215 216 219 221 223 225 227 229 231 233 237 242 247 254 260 266 272 276 279 282 284 285 286 286 284 283 280 275 276 272 260 246 234 236 250 259 260 265 270 273 277 281 284 286 288 291 295 296 296 296 295 294 293 293 294 295 296 293 288 285 283 282 283 284 282 277 272 270 273 281 288 289 286 287 290 287 282 276 272 270 268 268 267 267 271
220 219 218 219 221 224 227 229 231 233 235 237 240 243 248 253 258 264 270 274 278 280 282 284 284 284 283 281 277 273 268 269 262 245 241 248 254 258 260 265 269 271 273 278 281 282 284 284 286 288 288 289 288 289 290 288 287 287 289 289 285 284 283 281 282 283 283 281 278 275 274 279 285 286 283 281 284 288 287 283 280 278 276 269 263 262 265 268
221 220 221 223 226 229 232 235 236 238 240 242 245 248 252 258 263 268 272 276 279 280 281 281 282 282 279 276 270 265 258 253 253 252 254 260 262 262 264 267 269 272 276 280 282 283 283 284 285 285 285 285 284 286 286 286 286 285 286 284 283 283 283 281 282 283 282 281 280 278 279 284 286 283 280 281 284 286 282 281 281 281 277 261 252 255 261 267
224 224 226 228 231 235 238 239 241 242 243 245 247 251 256 261 266 270 273 276 278 279 280 280 280 280 276 273 266 261 254 250 254 258 258 259 262 264 266 269 271 274 276 278 280 281 282 283 284 284 285 286 285 286 285 286 286 286 285 284 283 283 282 282 282 284 285 284 282 280 282 286 285 282 282 284 289 287 280 277 277 275 268 253 247 249 254 261
228 229 231 234 236 239 241 243 244 245 246 248 250 254 259 263 267 271 273 276 277 279 280 280 280 277 274 271 265 259 256 255 257 260 261 260 262 264 266 269 272 274 277 278 279 280 281 282 282 284 286 286 285 286 286 286 287 287 287 285 284 283 284 285 285 287 287 286 285 283 285 286 282 281 283 285 289 286 278 276 273 269 263 258 256 256 257 261
232 233 235 237 240 241 243 244 245 247 248 251 254 257 261 265 268 271 274 276 278 279 279 279 278 275 272 268 264 261 261 259 259 261 263 264 264 266 270 272 274 277 278 278 280 281 280 281 282 282 283 284 285 285 285 285 285 286 287 287 287 287 288 289 290 291 289 287 287 285 285 283 280 280 282 283 281 274 269 269 269 268 266 265 266 267 268 270
234 235 237 239 241 243 244 245 246 248 250 252 255 258 262 266 269 271 274 276 277 278 278 278 276 273 270 266 264 265 263 261 263 264 265 267 268 270 272 274 277 277 278 278 280 281 282 283 282 282 282 282 283 283 283 283 284 285 286 287 288 290 292 294 295 295 291 289 286 284 283 282 282 281 281 278 271 264 263 264 265 266 266 268 270 272 274 276
236 237 238 240 242 244 245 247 248 249 251 254 257 260 263 266 269 271 273 275 276 277 276 276 273 271 268 265 265 265 262 262 264 266 268 269 270 272 274 276 278 278 279 279 280 281 282 282 282 281 279 280 282 282 283 282 283 284 285 287 289 291 294 296 299 297 294 291 287 286 285 283 283 282 279 273 267 263 264 265 265 265 266 269 272 274 277 279
237 238 240 241 243 245 246 248 250 251 253 256 259 262 264 266 269 270 272 273 274 274 273 273 271 269 267 266 264 262 262 264 265 267 270 271 272 274 276 277 278 279 279 279 280 281 280 280 280 278 277 279 280 281 281 281 281 284 287 290 293 294 296 300 302 297 294 292 291 289 285 285 285 282 278 273 269 267 268 269 269 267 268 270 272 275 278 281
237 239 240 243 244 245 247 249 250 253 255 258 261 263 265 267 268 270 271 271 271 271 270 269 269 268 267 267 265 263 264 266 267 268 269 271 273 274 276 277 277 277 277 277 278 278 278 278 276 275 275 277 280 281 279 278 281 286 289 291 293 295 298 303 302 296 295 292 293 289 284 288 288 282 280 275 272 270 268 268 268 269 270 271 274 277 280 284
238 240 241 243 245 246 248 249 251 254 256 259 261 263 265 266 268 269 269 269 269 269 268 268 268 268 269 269 267 265 265 266 268 269 269 271 272 273 274 275 275 274 274 274 274 274 274 274 272 272 274 277 279 276 275 277 282 287 287 288 291 294 296 298 296 294 293 290 291 288 282 286 286 282 285 282 275 270 268 267 267 268 270 273 276 278 282 286
242 243 244 245 247 248 250 251 253 255 257 259 261 262 264 265 266 267 267 267 267 267 268 268 268 269 270 270 267 265 265 266 266 267 269 270 271 272 273 272 272 272 271 271 272 272 271 271 271 271 272 275 274 272 275 278 281 284 284 286 290 293 294 293 292 292 292 290 287 283 277 279 281 282 282 280 275 269 267 267 268 270 272 274 277 280 283 287
245 246 247 248 250 251 253 254 255 256 258 259 260 261 263 263 264 265 265 265 265 266 266 267 268 269 270 268 266 265 265 265 266 267 268 269 270 271 270 270 269 268 269 270 270 270 269 269 269 268 270 270 268 269 271 273 280 287 288 288 289 291 291 289 290 292 292 290 286 282 277 277 278 278 277 276 275 273 272 271 271 272 274 277 279 282 284 288
247 248 250 251 252 254 255 256 256 257 258 259 259 260 261 262 263 263 263 263 264 265 266 267 268 268 268 268 266 265 264 265 265 266 266 267 269 270 269 268 267 268 269 269 269 268 268 267 266 265 265 265 266 269 268 275 287 291 287 285 285 285 285 285 288 290 289 287 284 281 279 279 278 278 279 279 278 277 277 276 275 275 276 279 282 284 287 288
247 249 250 252 253 254 255 256 256 257 257 257 258 259 260 260 261 262 262 262 263 264 265 266 265 263 265 267 267 265 264 264 265 265 267 269 270 270 270 268 268 269 268 268 268 268 267 267 265 263 267 270 275 278 277 281 285 280 277 279 281 282 280 282 285 285 284 281 278 278 278 280 280 279 280 280 278 277 277 277 277 278 279 281 284 286 287 287
247 248 250 252 253 254 255 255 255 256 256 256 257 258 259 260 262 263 263 263 264 265 264 263 263 262 264 266 266 266 266 266 266 267 268 269 269 269 268 268 268 268 268 268 268 268 268 266 264 267 273 278 279 278 277 275 274 273 275 277 278 277 277 282 284 282 281 279 277 279 280 280 281 281 280 278 277 276 275 276 277 278 280 283 285 286 286 287
245 247 249 251 252 253 254 255 256 256 256 258 258 259 260 261 263 264 265 265 264 264 264 264 264 263 263 265 265 266 267 266 266 266 267 267 267 268 268 267 267 268 269 269 268 269 268 264 266 273 278 277 274 272 271 272 273 273 274 274 273 274 279 284 284 281 280 279 280 282 280 279 281 281 278 276 276 276 275 275 276 278 281 282 283 284 287 292
245 247 248 250 252 253 255 256 256 257 258 259 260 261 263 263 264 266 268 267 264 263 263 263 263 264 264 265 265 265 264 264 265 265 266 267 266 266 267 266 266 267 267 267 267 267 265 265 272 277 275 271 269 269 269 270 271 269 269 269 271 275 282 284 283 284 282 280 283 284 282 280 280 279 277 275 274 273 274 274 277 280 281 279 280 284 289 292
245 246 248 250 252 253 255 256 256 257 258 260 261 262 263 264 266 267 268 269 267 263 262 263 263 264 264 263 264 264 263 264 265 265 264 264 264 263 264 264 266 266 265 265 266 265 263 269 276 274 267 267 267 267 267 268 267 265 265 267 271 277 280 281 284 286 283 282 284 286 286 285 282 279 277 275 274 273 273 274 276 278 278 278 281 286 288 288
247 247 249 250 252 254 255 256 256 257 258 260 260 261 263 263 265 266 268 271 270 265 262 263 263 263 262 263 263 263 264 264 262 262 262 261 262 261 261 263 263 263 264 266 266 265 265 270 273 269 267 268 267 266 266 267 267 266 266 267 272 276 277 279 284 285 284 284 285 288 291 291 288 282 278 276 275 274 274 273 273 272 273 278 282 285 285 286
249 249 249 250 251 253 254 255 256 257 257 257 258 259 260 260 261 264 268 272 273 269 265 264 265 265 263 261 260 261 262 263 261 260 260 258 258 258 259 260 260 260 263 264 265 265 266 269 271 270 270 270 268 267 267 266 266 266 268 270 273 275 275 278 282 283 286 287 287 294 300 299 294 277 269 279 282 281 275 269 270 273 276 279 280 281 282 284
250 250 250 250 251 251 253 255 256 256 255 254 255 255 255 257 259 262 267 275 276 273 270 267 264 264 262 258 258 259 259 260 259 258 256 254 254 254 255 255 257 258 260 261 262 264 267 269 270 271 270 268 267 268 268 264 262 265 270 273 274 275 274 275 277 279 282 283 284 291 292 277 274 271 267 272 273 269 269 270 274 278 280 281 282 283 284 284
250 250 250 249 250 251 253 255 255 254 252 251 250 251 252 254 255 259 266 280 278 273 271 266 259 259 260 257 255 250 249 255 257 253 251 250 250 250 251 254 256 257 257 256 254 259 267 269 269 270 267 265 268 272 273 264 260 263 269 274 275 276 274 272 275 277 278 278 278 280 279 275 279 282 276 273 271 267 266 269 273 277 279 282 284 284 283 281
248 248 249 249 249 250 252 254 253 250 250 248 247 249 249 249 252 255 256 265 270 269 267 258 252 253 252 250 247 239 240 250 251 247 248 247 246 247 249 252 254 255 256 253 250 257 266 266 266 267 265 265 268 270 269 260 257 260 266 270 272 275 273 273 277 279 279 278 271 268 267 267 276 287 282 278 273 267 264 267 273 278 280 283 283 281 278 276
246 245 246 246 246 246 247 248 249 248 248 246 245 246 243 244 246 241 224 231 254 259 257 242 234 234 237 240 240 235 238 242 242 242 243 239 240 243 245 248 250 251 252 252 253 257 262 262 263 264 263 264 264 262 261 259 258 259 260 263 268 273 275 278 281 277 277 270 257 261 260 253 272 281 253 252 259 244 246 268 278 281 281 281 279 277 276 276
247 247 246 244 242 243 244 245 246 246 245 245 243 243 241 239 234 213 184 232 242 247 241 226 222 226 232 238 239 235 233 234 236 238 236 235 237 237 238 241 243 244 245 250 252 253 254 256 256 257 259 259 255 252 255 256 256 255 255 258 265 273 278 282 277 273 280 271 258 264 255 243 268 326 157 189 182 145 151 277 281 282 282 283 282 279 278 277
250 249 250 248 245 246 248 250 248 246 247 247 242 240 241 236 223 199 204 234 233 239 234 221 216 224 235 240 239 236 232 231 234 236 234 234 234 233 231 232 235 236 239 245 248 248 249 250 252 253 253 252 249 246 247 250 252 252 250 248 252 268 278 272 262 251 248 261 267 252 235 229 232 194 135 154 156 150 249 288 280 276 278 282 284 281 277 274
253 251 252 253 253 252 252 253 251 248 249 248 246 241 232 221 211 214 227 234 236 242 234 225 220 222 230 232 231 232 230 230 232 232 232 230 229 232 232 232 232 229 236 243 245 249 252 251 250 249 247 246 244 242 242 243 244 243 234 220 216 256 333 265 243 218 231 255 262 228 221 229 238 243 231 205 199 228 280 293 282 275 277 278 279 277 273 269
254 255 253 252 254 254 253 253 251 250 249 247 244 232 218 205 211 223 225 224 226 231 223 222 221 219 221 222 222 224 225 228 230 229 229 227 225 227 227 231 229 225 233 241 238 244 254 255 247 243 242 240 239 238 239 240 239 238 228 210 197 138 57 278 258 284 265 263 258 239 239 251 256 259 253 236 237 260 284 290 284 283 280 275 272 270 269 267
254 255 255 253 254 254 255 255 251 251 252 247 237 219 207 205 224 227 223 220 222 228 222 214 213 212 215 218 222 225 223 225 228 226 226 225 223 223 222 224 225 225 229 233 236 236 242 256 242 233 233 233 236 236 237 241 240 240 230 218 216 209 198 230 231 221 270 304 286 244 232 246 254 256 237 229 246 271 283 282 280 281 278 273 270 267 267 268
251 252 255 256 255 254 254 256 255 252 251 244 230 215 208 215 226 228 226 223 223 228 229 220 211 210 211 215 220 223 222 224 224 223 224 225 225 226 225 225 227 228 227 227 235 234 235 248 239 225 221 216 221 223 226 233 236 239 231 222 230 237 237 246 261 262 284 316 283 239 241 261 270 273 271 270 275 279 283 282 279 275 270 268 270 269 267 267
251 250 250 249 252 254 252 253 254 251 248 241 225 217 220 227 232 234 235 229 226 229 228 223 216 211 210 212 215 217 219 222 222 219 221 225 227 229 227 226 228 230 229 229 232 226 224 234 225 218 215 206 204 203 210 221 225 227 225 226 240 252 251 253 275 293 297 299 275 250 257 269 276 279 276 276 286 288 287 287 278 267 264 266 270 270 267 267
248 248 246 244 248 252 251 252 252 246 246 241 226 225 232 235 235 235 235 234 230 227 226 224 220 215 212 212 213 215 216 217 217 216 218 220 226 231 227 225 228 231 231 230 232 232 226 221 211 208 213 209 203 199 203 216 222 223 226 237 252 264 259 246 264 333 314 262 272 258 262 270 270 272 276 281 289 288 281 282 270 260 267 270 268 266 266 269
244 246 248 246 247 250 250 252 252 243 237 231 222 227 235 235 233 233 233 233 228 223 224 224 224 223 220 216 215 214 212 212 212 210 215 218 223 226 217 218 226 228 225 221 224 228 227 230 226 214 215 213 210 214 217 223 233 241 246 251 250 245 225 206 203 287 267 254 282 268 270 272 262 262 277 282 282 278 270 271 272 271 269 265 266 268 269 272
244 245 246 246 246 247 247 251 252 239 226 220 220 227 234 234 233 232 231 230 224 220 223 226 227 225 222 219 215 209 207 211 212 209 214 218 222 226 221 224 230 226 220 217 220 225 226 234 231 215 215 219 224 229 234 238 242 246 247 247 247 243 232 222 221 233 241 245 283 283 285 280 273 276 281 274 272 278 275 274 279 280 271 269 276 275 272 272
243 243 245 247 245 243 245 248 246 232 221 220 223 228 233 234 234 234 234 232 228 226 226 227 228 227 224 220 215 210 206 208 211 212 217 218 222 231 231 230 230 225 220 215 219 224 227 232 232 214 210 217 229 234 240 246 244 241 241 242 248 248 242 244 243 242 240 221 265 279 281 280 283 288 275 267 282 284 282 286 286 279 274 278 281 276 270 266
244 241 244 247 243 240 240 237 232 227 224 225 226 228 233 235 235 236 237 236 234 232 229 225 223 226 227 221 215 212 207 204 209 216 224 230 234 237 233 228 225 222 220 214 214 218 222 230 232 221 214 221 232 237 240 243 241 248 255 256 260 258 249 245 246 245 239 225 233 236 266 278 280 282 274 278 289 290 288 288 282 274 278 281 277 269 260 253
243 241 243 245 241 238 236 232 231 230 229 229 230 230 232 234 235 236 238 238 235 232 229 225 221 223 226 224 220 216 210 209 217 225 234 239 240 237 232 230 224 220 223 220 217 219 222 228 232 229 226 229 235 240 243 247 251 257 263 264 264 261 251 241 233 246 242 231 240 240 253 274 276 280 283 285 291 292 289 285 281 278 278 273 263 255 245 245
240 241 243 244 240 236 232 230 230 229 227 230 233 232 232 234 234 235 237 236 232 228 226 226 225 222 220 220 219 215 212 217 227 233 237 240 240 236 232 231 227 225 225 221 216 216 216 221 232 240 246 245 245 249 252 256 259 260 263 265 262 259 256 253 251 255 252 240 241 230 244 270 275 281 284 286 290 288 286 286 283 274 262 254 248 245 246 257
240 241 241 241 239 236 230 225 225 223 223 227 229 228 229 232 233 236 239 237 232 228 225 225 225 222 218 217 217 216 216 222 230 233 236 240 240 237 234 232 230 227 224 219 219 219 219 224 234 245 263 263 257 258 255 253 254 256 258 260 258 257 257 256 253 252 251 251 249 232 248 265 272 278 281 284 286 282 282 279 272 262 246 232 225 228 247 269
231 234 237 238 237 233 226 222 222 222 222 225 226 226 229 232 234 238 240 240 238 233 227 224 224 226 226 226 227 227 226 230 234 236 241 244 241 237 236 236 237 237 236 239 244 248 252 253 247 238 229 241 249 243 241 246 246 246 251 254 257 258 255 253 252 246 244 253 252 243 252 263 271 276 277 280 283 281 278 270 265 258 241 228 233 256 275 283
214 215 220 224 225 224 222 222 222 223 224 226 226 228 231 233 234 236 238 239 240 238 234 234 236 236 233 231 233 233 233 235 237 241 246 246 242 239 239 239 242 245 248 252 256 261 262 257 252 246 240 247 255 257 256 260 260 259 262 265 265 263 259 254 250 243 246 255 255 253 258 265 270 273 276 279 280 280 278 271 258 241 238 256 283 294 294 288
214 213 213 214 214 217 220 223 223 223 224 225 227 230 231 228 230 233 235 237 239 239 240 243 246 242 235 234 235 234 236 239 241 245 249 248 246 246 245 244 246 249 252 253 256 260 258 254 255 255 255 261 266 269 269 268 268 268 269 269 268 266 261 253 248 249 253 256 257 259 262 265 268 271 274 277 278 279 277 269 253 245 265 290 297 294 289 282
225 226 225 221 219 218 220 222 219 215 215 220 222 225 226 225 227 230 233 237 241 242 242 244 246 244 242 242 240 238 239 242 244 246 248 248 249 251 253 255 255 256 257 257 258 261 260 261 263 263 265 269 271 273 273 271 271 271 270 269 269 266 261 256 256 258 258 254 257 263 266 268 269 271 274 275 277 276 270 264 265 278 292 295 291 287 285 282
229 231 231 228 226 223 220 221 219 216 218 222 218 217 222 226 229 232 236 239 242 243 244 246 250 250 247 244 242 241 242 244 247 249 251 253 256 258 259 260 260 260 261 260 261 261 259 262 266 266 267 270 271 271 272 271 271 271 270 270 269 266 262 260 261 263 262 259 261 265 268 268 269 270 271 273 274 270 266 268 281 292 293 289 288 287 286 286
235 237 238 237 236 235 231 229 226 227 232 236 232 229 231 235 237 238 240 241 241 243 246 249 254 255 252 251 252 254 256 259 261 262 264 264 263 262 261 262 262 261 260 258 257 256 254 257 263 265 265 268 269 270 271 269 268 269 269 267 266 265 263 262 262 263 262 261 263 265 265 267 271 272 272 272 271 270 272 279 286 288 287 287 287 286 286 286
242 243 244 243 244 245 244 242 241 242 242 241 241 240 240 242 244 243 244 246 247 249 252 255 258 259 259 260 261 263 266 269 270 269 268 266 264 263 262 262 261 259 257 255 253 252 252 254 259 261 261 265 269 270 267 266 268 268 265 264 263 262 263 264 265 266 264 264 264 261 261 269 276 278 277 276 274 273 277 282 283 284 285 286 286 285 284 283
246 245 246 247 248 248 249 249 248 248 248 247 246 246 247 249 250 250 250 251 251 252 254 257 258 258 259 259 261 265 269 269 268 267 264 261 260 260 258 257 258 257 256 255 254 254 253 254 257 256 254 261 267 268 264 265 270 263 261 264 265 265 267 269 269 270 271 269 266 263 267 275 280 278 276 275 273 274 276 278 280 283 284 285 284 283 282 280
Height
3170 3171 3172 3172 3173 3174 3175 3175 3176 3177 3177 3178 3178 3179 3179 3180 3180 3181 3181 3182 3182 3182 3182 3183 3183 3183 3183 3183 3183 3183 3183 3183 3183 3183 3183 3183 3183 3183 3183 3184 3184 3184 3184 3185 3185 3185 3185 3185 3185 3185 3185 3184 3184 3184 3184 3184 3184 3184 3185 3185 3185 3185 3185 3185 3185 3185 3185 3184 3184 3185 3184 3185 3185 3185 3185 3185 3185 3186 3186 3186 3184 3183 3183 3182 3181 3181 3181 3182
3170 3170 3171 3172 3172 3173 3174 3174 3175 3176 3176 3177 3177 3178 3178 3178 3179 3180 3180 3181 3181 3181 3181 3182 3182 3182 3182 3182 3182 3182 3182 3182 3182 3182 3182 3182 3182 3182 3182 3183 3183 3183 3184 3184 3184 3184 3184 3184 3184 3184 3184 3184 3184 3183 3183 3184 3184 3184 3184 3184 3185 3185 3184 3184 3184 3184 3184 3184 3184 3184 3184 3184 3184 3184 3184 3184 3184 3184 3185 3184 3183 3183 3182 3181 3180 3180 3180 3181
3169 3169 3170 3171 3171 3172 3173 3173 3174 3174 3175 3176 3176 3176 3177 3177 3178 3178 3179 3179 3180 3180 3180 3180 3180 3181 3181 3181 3181 3181 3181 3181 3181 3181 3181 3181 3181 3181 3182 3182 3182 3182 3183 3183 3183 3183 3183 3183 3183 3183 3183 3183 3183 3183 3183 3183 3183 3183 3184 3184 3184 3184 3184 3183 3183 3183 3183 3183 3183 3183 3183 3183 3182 3182 3183 3182 3182 3183 3183 3182 3182 3182 3181 3179 3179 3179 3179 3179
3167 3168 3169 3169 3170 3171 3171 3172 3173 3173 3174 3174 3175 3176 3176 3177 3177 3177 3178 3178 3178 3179 3179 3179 3179 3179 3179 3179 3179 3180 3180 3180 3180 3180 3180 3180 3180 3181 3181 3181 3181 3181 3182 3182 3182 3182 3182 3183 3182 3183 3183 3182 3182 3182 3182 3182 3183 3183 3183 3183 3183 3183 3183 3182 3182 3182 3182 3182 3182 3182 3181 3181 3181 3181 3181 3180 3180 3181 3180 3180 3180 3180 3180 3179 3178 3178 3178 3178
3166 3166 3167 3168 3169 3169 3170 3171 3172 3172 3173 3173 3174 3175 3175 3176 3176 3176 3176 3177 3177 3177 3177 3177 3177 3178 3178 3178 3178 3178 3178 3179 3178 3178 3179 3179 3179 3180 3180 3180 3180 3180 3181 3181 3181 3181 3182 3182 3182 3182 3182 3182 3181 3181 3181 3182 3182 3182 3182 3182 3182 3182 3182 3181 3181 3181 3181 3181 3181 3180 3180 3180 3180 3180 3179 3178 3178 3178 3178 3177 3177 3178 3178 3178 3177 3177 3177 3177
3164 3165 3166 3166 3167 3168 3169 3170 3170 3171 3172 3172 3173 3173 3174 3174 3174 3174 3175 3175 3175 3175 3176 3176 3176 3176 3176 3176 3177 3177 3177 3177 3177 3177 3177 3178 3178 3178 3179 3179 3179 3179 3180 3180 3180 3180 3180 3180 3180 3180 3180 3180 3180 3180 3180 3180 3180 3181 3181 3181 3180 3181 3181 3180 3180 3180 3180 3179 3179 3178 3178 3178 3178 3178 3178 3177 3176 3176 3176 3175 3175 3175 3176 3176 3175 3175 3175 3175
3162 3163 3164 3165 3166 3166 3167 3168 3169 3170 3170 3171 3171 3172 3172 3172 3173 3173 3173 3173 3173 3173 3174 3174 3174 3174 3174 3175 3175 3175 3176 3176 3175 3176 3176 3176 3177 3177 3177 3177 3178 3178 3178 3178 3179 3179 3179 3179 3179 3179 3179 3179 3179 3179 3179 3178 3179 3179 3179 3179 3179 3179 3179 3179 3179 3178 3178 3178 3177 3176 3176 3177 3176 3175 3175 3175 3175 3175 3174 3173 3173 3173 3173 3174 3174 3173 3173 3173
3161 3162 3162 3163 3164 3165 3166 3167 3167 3168 3168 3169 3170 3170 3170 3171 3171 3171 3171 3171 3171 3172 3172 3172 3172 3173 3173 3173 3173 3174 3174 3174 3174 3174 3175 3175 3175 3175 3176 3176 3176 3177 3177 3177 3177 3177 3177 3177 3178 3177 3177 3178 3177 3177 3177 3177 3177 3177 3177 3178 3177 3177 3177 3177 3177 3177 3176 3176 3175 3174 3174 3175 3174 3172 3173 3173 3173 3172 3172 3172 3171 3171 3171 3172 3172 3172 3172 3172
3159 3160 3161 3161 3162 3163 3164 3165 3165 3166 3167 3167 3168 3168 3169 3169 3169 3169 3169 3169 3170 3170 3170 3170 3170 3171 3171 3171 3172 3172 3173 3172 3172 3173 3173 3173 3173 3174 3174 3174 3175 3175 3175 3175 3175 3175 3176 3176 3176 3176 3176 3176 3176 3176 3176 3175 3175 3175 3175 3175 3175 3175 3175 3175 3175 3175 3174 3174 3173 3172 3172 3173 3171 3170 3171 3171 3171 3170 3170 3170 3170 3169 3170 3170 3170 3170 3170 3170
3157 3158 3159 3160 3160 3161 3162 3162 3163 3164 3165 3165 3166 3166 3166 3167 3167 3167 3167 3167 3167 3168 3168 3168 3168 3169 3169 3169 3170 3171 3171 3170 3171 3171 3171 3172 3172 3172 3172 3173 3173 3173 3173 3173 3173 3173 3174 3174 3174 3174 3174 3174 3174 3174 3174 3174 3173 3173 3173 3173 3173 3173 3173 3173 3173 3174 3173 3172 3171 3170 3170 3170 3169 3168 3169 3169 3169 3168 3168 3168 3168 3168 3168 3168 3168 3168 3168 3168
3155 3156 3157 3157 3158 3159 3160 3160 3161 3162 3163 3163 3164 3164 3164 3164 3164 3165 3165 3165 3165 3166 3166 3166 3166 3166 3167 3167 3168 3169 3169 3169 3169 3169 3169 3170 3170 3170 3170 3171 3171 3171 3171 3171 3171 3171 3171 3172 3172 3172 3172 3172 3172 3172 3172 3171 3171 3171 3171 3171 3171 3171 3171 3171 3171 3171 3170 3170 3169 3168 3168 3168 3167 3167 3167 3167 3167 3167 3166 3166 3166 3166 3166 3166 3166 3165 3165 3165
3153 3153 3154 3155 3156 3157 3157 3158 3159 3160 3160 3161 3161 3162 3162 3162 3162 3162 3162 3163 3163 3163 3163 3164 3164 3164 3164 3165 3166 3167 3166 3167 3167 3167 3167 3168 3168 3168 3168 3168 3169 3169 3169 3169 3169 3169 3169 3170 3170 3170 3170 3170 3170 3170 3169 3169 3169 3169 3168 3168 3169 3169 3169 3169 3169 3169 3168 3167 3167 3166 3165 3166 3165 3165 3165 3164 3164 3165 3164 3164 3164 3164 3164 3164 3164 3163 3163 3163
3150 3151 3152 3153 3153 3154 3155 3156 3157 3157 3158 3159 3159 3159 3159 3159 3159 3160 3160 3160 3161 3161 3161 3161 3161 3162 3162 3163 3164 3164 3164 3164 3165 3165 3165 3165 3165 3166 3166 3166 3166 3167 3167 3167 3167 3167 3167 3167 3168 3167 3168 3168 3168 3168 3167 3167 3167 3167 3166 3166 3166 3166 3167 3168 3167 3166 3166 3165 3164 3164 3163 3163 3163 3162 3162 3162 3162 3162 3162 3162 3162 3162 3162 3161 3161 3161 3161 3160
3147 3148 3149 3150 3151 3152 3152 3153 3154 3155 3155 3156 3156 3156 3156 3157 3157 3157 3158 3158 3158 3158 3159 3159 3159 3159 3159 3160 3162 3162 3162 3162 3162 3162 3162 3163 3163 3163 3164 3164 3164 3164 3164 3165 3165 3165 3165 3165 3165 3165 3166 3166 3166 3165 3165 3164 3164 3165 3164 3164 3164 3163 3164 3165 3165 3164 3164 3163 3162 3162 3161 3161 3161 3159 3159 3160 3160 3160 3160 3160 3160 3159 3159 3159 3159 3158 3158 3158
3144 3145 3146 3147 3148 3149 3149 3150 3151 3152 3153 3153 3153 3153 3154 3154 3154 3155 3155 3155 3156 3156 3156 3156 3156 3156 3156 3158 3159 3159 3159 3159 3159 3160 3160 3160 3161 3161 3161 3161 3162 3162 3162 3162 3162 3163 3163 3163 3163 3163 3163 3164 3164 3163 3162 3162 3162 3162 3162 3161 3162 3161 3161 3163 3162 3161 3161 3161 3161 3161 3159 3159 3159 3158 3157 3157 3157 3158 3157 3158 3157 3157 3157 3156 3156 3156 3155 3155
3141 3142 3143 3144 3145 3146 3146 3147 3148 3149 3149 3150 3150 3150 3151 3151 3151 3152 3152 3153 3153 3153 3153 3153 3154 3154 3153 3155 3156 3156 3157 3156 3157 3157 3157 3158 3158 3158 3159 3159 3159 3159 3159 3159 3160 3160 3160 3160 3160 3161 3161 3161 3161 3160 3160 3160 3160 3160 3159 3159 3159 3159 3159 3160 3160 3159 3159 3158 3158 3158 3157 3157 3158 3157 3156 3155 3155 3155 3155 3155 3155 3155 3154 3154 3153 3153 3153 3152
3138 3139 3140 3141 3141 3142 3143 3144 3145 3146 3146 3146 3146 3147 3148 3148 3148 3149 3149 3150 3150 3150 3150 3150 3151 3151 3150 3151 3153 3153 3154 3153 3154 3154 3155 3155 3155 3156 3156 3156 3156 3156 3157 3157 3157 3157 3157 3157 3158 3158 3159 3159 3158 3158 3158 3157 3157 3158 3157 3157 3157 3157 3156 3156 3157 3157 3156 3155 3155 3154 3154 3155 3156 3155 3154 3153 3152 3152 3153 3153 3153 3152 3152 3151 3151 3150 3150 3150
3135 3136 3137 3137 3138 3139 3139 3140 3141 3142 3143 3143 3143 3144 3144 3145 3145 3145 3146 3146 3147 3147 3147 3147 3148 3148 3147 3148 3149 3150 3151 3151 3151 3151 3152 3152 3153 3153 3153 3153 3154 3154 3154 3154 3154 3154 3154 3154 3155 3155 3156 3156 3155 3156 3156 3155 3155 3156 3155 3154 3154 3154 3154 3154 3154 3154 3153 3152 3151 3151 3150 3151 3153 3152 3151 3151 3150 3149 3149 3149 3149 3149 3148 3148 3148 3147 3147 3147
3131 3132 3133 3134 3135 3135 3136 3137 3138 3139 3139 3139 3140 3141 3141 3142 3142 3142 3143 3143 3143 3144 3144 3144 3144 3144 3144 3146 3147 3147 3148 3148 3148 3149 3149 3150 3150 3150 3150 3150 3150 3151 3151 3151 3151 3151 3151 3151 3151 3151 3152 3153 3153 3153 3153 3152 3153 3153 3152 3151 3151 3150 3150 3151 3152 3152 3151 3149 3147 3148 3146 3147 3149 3149 3148 3147 3147 3146 3146 3145 3145 3145 3145 3145 3145 3145 3144 3144
3127 3128 3129 3130 3131 3132 3132 3134 3135 3136 3136 3136 3137 3138 3138 3138 3138 3138 3139 3139 3140 3141 3140 3140 3141 3141 3142 3143 3143 3144 3144 3145 3145 3146 3146 3147 3147 3147 3147 3147 3147 3147 3147 3148 3148 3148 3148 3147 3146 3148 3150 3151 3151 3151 3150 3150 3150 3149 3149 3148 3148 3147 3146 3148 3149 3149 3148 3145 3143 3145 3144 3143 3145 3146 3145 3144 3144 3143 3143 3142 3142 3142 3142 3142 3142 3142 3142 3142
3123 3124 3125 3126 3127 3128 3129 3130 3131 3132 3133 3133 3134 3134 3134 3135 3135 3135 3135 3136 3136 3137 3137 3137 3137 3137 3139 3139 3139 3140 3141 3141 3141 3142 3143 3143 3144 3143 3143 3143 3143 3144 3144 3144 3144 3144 3144 3142 3142 3146 3148 3148 3148 3148 3147 3147 3147 3146 3145 3145 3144 3144 3143 3144 3146 3146 3145 3142 3140 3142 3141 3140 3142 3142 3141 3141 3140 3140 3139 3139 3139 3139 3139 3139 3140 3139 3139 3139
3119 3120 3121 3122 3123 3124 3125 3127 3128 3129 3129 3130 3131 3131 3132 3133 3132 3132 3132 3131 3132 3133 3133 3133 3132 3133 3136 3136 3135 3136 3136 3136 3137 3139 3140 3140 3140 3140 3139 3139 3140 3140 3141 3141 3141 3141 3139 3137 3141 3145 3145 3145 3145 3145 3144 3144 3144 3143 3142 3142 3141 3141 3140 3141 3143 3142 3142 3139 3137 3138 3137 3136 3139 3138 3137 3137 3136 3136 3136 3136 3137 3137 3137 3137 3137 3137 3137 3137
3115 3116 3117 3118 3119 3120 3121 3123 3124 3125 3126 3127 3127 3128 3129 3129 3129 3130 3129 3126 3126 3129 3129 3129 3129 3129 3131 3131 3131 3132 3132 3133 3134 3134 3136 3136 3136 3136 3135 3135 3136 3136 3136 3137 3138 3137 3135 3135 3139 3142 3141 3141 3142 3142 3142 3141 3140 3140 3140 3139 3138 3139 3139 3138 3139 3140 3139 3137 3135 3135 3133 3132 3134 3134 3133 3132 3132 3133 3133 3133 3134 3134 3135 3135 3135 3135 3135 3135
3111 3112 3113 3114 3115 3116 3117 3119 3120 3122 3123 3123 3124 3125 3126 3127 3127 3127 3126 3123 3120 3122 3125 3124 3124 3125 3127 3128 3128 3128 3127 3128 3130 3130 3132 3132 3132 3132 3131 3131 3132 3131 3132 3133 3134 3132 3132 3134 3136 3137 3138 3138 3138 3139 3139 3138 3137 3137 3137 3136 3135 3136 3137 3136 3137 3137 3135 3134 3133 3132 3129 3127 3129 3129 3128 3129 3129 3130 3130 3131 3131 3132 3132 3133 3133 3133 3132 3132
3107 3109 3109 3110 3112 3112 3113 3115 3117 3119 3120 3120 3121 3122 3123 3123 3124 3124 3124 3121 3114 3114 3119 3120 3119 3119 3121 3123 3123 3124 3124 3123 3125 3126 3127 3128 3127 3128 3127 3128 3127 3127 3128 3130 3130 3128 3128 3132 3132 3133 3134 3135 3135 3135 3135 3135 3134 3134 3134 3134 3133 3134 3135 3134 3134 3134 3133 3132 3131 3131 3129 3125 3125 3127 3127 3127 3128 3128 3128 3129 3129 3130 3130 3130 3130 3130 3130 3130
3103 3104 3105 3107 3108 3108 3109 3111 3114 3116 3115 3117 3118 3119 3120 3120 3121 3122 3122 3119 3109 3106 3112 3114 3114 3114 3115 3117 3118 3120 3119 3117 3119 3121 3121 3122 3123 3123 3123 3123 3123 3124 3126 3127 3127 3124 3125 3128 3129 3129 3130 3131 3131 3131 3132 3132 3131 3131 3131 3131 3132 3132 3132 3132 3132 3132 3131 3130 3129 3130 3130 3125 3122 3125 3126 3126 3127 3127 3127 3127 3127 3128 3128 3128 3128 3128 3128 3128
3099 3100 3101 3102 3103 3104 3105 3108 3111 3111 3111 3114 3115 3115 3117 3117 3119 3119 3120 3120 3106 3098 3103 3106 3108 3109 3109 3111 3113 3115 3114 3111 3114 3115 3115 3117 3117 3118 3119 3118 3119 3121 3122 3124 3123 3121 3122 3124 3125 3126 3127 3127 3128 3128 3129 3129 3129 3129 3129 3129 3130 3130 3130 3131 3131 3130 3129 3129 3128 3129 3130 3124 3119 3121 3124 3124 3125 3125 3125 3125 3125 3125 3126 3126 3126 3126 3126 3126
3094 3096 3097 3098 3099 3100 3101 3103 3105 3106 3108 3111 3111 3112 3113 3113 3116 3116 3120 3119 3102 3093 3098 3100 3102 3104 3105 3107 3108 3110 3109 3107 3109 3110 3111 3113 3113 3114 3115 3115 3117 3118 3119 3120 3119 3119 3120 3121 3122 3123 3124 3124 3125 3126 3126 3126 3126 3126 3127 3127 3127 3128 3129 3129 3129 3128 3127 3127 3126 3126 3128 3124 3117 3118 3121 3122 3123 3122 3122 3123 3124 3124 3124 3124 3124 3124 3124 3124
3090 3091 3092 3094 3095 3095 3097 3099 3101 3103 3105 3106 3107 3108 3108 3110 3112 3113 3117 3113 3096 3090 3095 3097 3099 3101 3101 3103 3104 3105 3105 3105 3106 3106 3108 3109 3109 3111 3112 3112 3114 3115 3116 3116 3116 3118 3118 3118 3119 3120 3121 3122 3123 3123 3124 3124 3124 3124 3125 3125 3126 3126 3127 3127 3127 3127 3126 3125 3123 3124 3125 3123 3117 3115 3118 3120 3119 3120 3121 3122 3123 3123 3123 3123 3122 3122 3122 3123
3086 3088 3089 3089 3090 3091 3093 3095 3097 3099 3100 3102 3103 3103 3104 3106 3106 3110 3111 3102 3090 3089 3092 3093 3096 3097 3099 3101 3101 3102 3102 3102 3103 3104 3105 3106 3107 3108 3109 3110 3111 3112 3113 3113 3114 3115 3115 3115 3117 3118 3119 3119 3120 3121 3121 3122 3122 3123 3123 3124 3125 3125 3125 3126 3125 3125 3126 3122 3119 3121 3122 3122 3118 3114 3115 3117 3117 3119 3120 3122 3122 3122 3122 3122 3121 3121 3121 3121
3082 3084 3085 3085 3086 3088 3089 3091 3094 3095 3096 3097 3098 3099 3100 3101 3102 3104 3099 3089 3086 3088 3088 3090 3093 3094 3096 3097 3098 3099 3099 3099 3100 3101 3102 3103 3104 3105 3106 3108 3109 3110 3111 3111 3112 3112 3112 3113 3114 3115 3116 3117 3118 3119 3120 3120 3120 3121 3122 3123 3124 3124 3124 3124 3123 3124 3124 3120 3118 3118 3119 3120 3118 3114 3114 3116 3117 3118 3119 3121 3121 3121 3121 3121 3120 3120 3119 3119
3079 3080 3081 3081 3082 3084 3086 3088 3090 3091 3091 3092 3093 3094 3095 3096 3095 3092 3085 3083 3086 3085 3084 3087 3089 3091 3093 3094 3095 3096 3096 3097 3098 3098 3099 3100 3102 3103 3104 3105 3106 3108 3109 3109 3110 3110 3110 3111 3112 3113 3114 3114 3116 3117 3117 3118 3118 3119 3120 3121 3123 3124 3124 3123 3123 3123 3121 3118 3117 3117 3118 3117 3113 3112 3115 3116 3116 3117 3118 3119 3119 3120 3120 3119 3119 3118 3118 3118
3075 3076 3077 3077 3078 3080 3082 3085 3086 3087 3087 3089 3089 3089 3088 3088 3084 3078 3077 3081 3083 3081 3082 3085 3086 3088 3090 3090 3092 3093 3094 3095 3095 3096 3097 3098 3100 3101 3102 3103 3104 3105 3106 3107 3109 3109 3108 3109 3109 3110 3111 3112 3113 3114 3115 3115 3116 3117 3118 3120 3121 3123 3125 3123 3122 3121 3118 3116 3115 3116 3117 3114 3109 3110 3112 3113 3115 3116 3116 3117 3117 3117 3118 3117 3117 3117 3116 3116
3071 3072 3072 3074 3075 3076 3078 3080 3081 3082 3083 3085 3085 3084 3082 3079 3074 3071 3074 3078 3079 3080 3081 3083 3084 3086 3087 3088 3090 3091 3092 3093 3093 3094 3095 3096 3097 3097 3099 3100 3101 3103 3104 3106 3107 3107 3107 3107 3107 3108 3108 3109 3110 3112 3113 3114 3115 3116 3116 3118 3118 3119 3121 3119 3118 3117 3115 3115 3115 3115 3115 3110 3107 3108 3109 3111 3113 3114 3114 3115 3115 3115 3115 3114 3114 3114 3114 3114
3067 3068 3069 3070 3070 3071 3073 3075 3076 3077 3079 3080 3081 3079 3076 3072 3069 3070 3073 3075 3077 3079 3080 3081 3083 3084 3084 3086 3087 3088 3090 3090 3091 3092 3092 3093 3094 3095 3096 3098 3099 3100 3102 3104 3105 3105 3106 3105 3106 3106 3107 3108 3108 3109 3111 3112 3113 3114 3114 3116 3115 3116 3117 3116 3116 3115 3116 3116 3113 3112 3110 3106 3105 3106 3106 3108 3110 3111 3112 3112 3112 3112 3112 3112 3112 3112 3112 3112
3062 3063 3064 3064 3064 3067 3069 3071 3072 3073 3074 3075 3075 3072 3069 3068 3068 3070 3072 3074 3076 3077 3078 3080 3080 3081 3081 3082 3084 3085 3086 3088 3088 3089 3090 3091 3092 3092 3094 3095 3096 3098 3099 3101 3102 3103 3104 3104 3104 3105 3105 3106 3107 3107 3109 3110 3111 3112 3112 3113 3113 3114 3115 3115 3115 3114 3116 3116 3110 3107 3106 3104 3104 3102 3102 3105 3107 3107 3109 3109 3109 3110 3110 3110 3110 3110 3110 3110
3057 3058 3058 3059 3061 3063 3065 3067 3069 3069 3068 3068 3068 3066 3064 3065 3066 3068 3070 3072 3074 3075 3076 3077 3077 3078 3078 3079 3081 3082 3083 3085 3085 3086 3087 3089 3089 3089 3091 3092 3093 3095 3096 3098 3100 3100 3101 3102 3103 3104 3104 3104 3105 3106 3106 3107 3109 3109 3109 3110 3111 3112 3113 3115 3116 3115 3117 3116 3108 3103 3103 3102 3101 3100 3099 3102 3104 3104 3105 3106 3107 3107 3107 3108 3108 3108 3108 3108
3052 3054 3054 3055 3058 3060 3061 3063 3064 3064 3063 3062 3061 3061 3060 3060 3062 3065 3067 3069 3071 3072 3072 3073 3074 3075 3076 3077 3078 3079 3081 3082 3083 3084 3085 3086 3087 3087 3088 3089 3090 3092 3093 3095 3097 3097 3099 3100 3101 3102 3102 3103 3103 3103 3104 3105 3106 3106 3107 3108 3109 3111 3112 3113 3116 3116 3116 3114 3107 3101 3100 3097 3097 3097 3097 3099 3101 3101 3102 3103 3104 3105 3105 3105 3105 3105 3105 3105
3047 3049 3048 3049 3053 3055 3057 3058 3058 3059 3058 3056 3055 3055 3055 3056 3059 3062 3064 3066 3068 3068 3069 3070 3071 3072 3073 3074 3075 3076 3078 3079 3080 3082 3083 3084 3085 3085 3085 3087 3088 3089 3090 3092 3093 3094 3096 3098 3098 3098 3100 3100 3100 3100 3101 3102 3103 3104 3105 3106 3107 3109 3110 3111 3113 3112 3112 3112 3107 3102 3097 3091 3091 3093 3094 3096 3097 3098 3099 3100 3101 3101 3102 3102 3102 3103 3103 3102
3042 3043 3041 3044 3049 3051 3053 3054 3053 3053 3051 3049 3049 3050 3051 3052 3055 3058 3060 3062 3064 3065 3065 3066 3068 3069 3070 3071 3073 3073 3074 3075 3077 3079 3081 3082 3083 3083 3084 3084 3085 3087 3088 3089 3091 3092 3093 3094 3095 3096 3097 3097 3097 3097 3098 3099 3100 3101 3102 3103 3105 3107 3108 3109 3109 3108 3109 3110 3109 3105 3096 3086 3087 3090 3091 3092 3094 3095 3096 3097 3097 3098 3098 3099 3099 3099 3099 3099
3038 3038 3036 3040 3043 3046 3049 3048 3045 3045 3045 3044 3045 3046 3047 3049 3051 3053 3056 3058 3060 3061 3062 3063 3065 3066 3067 3068 3069 3070 3071 3072 3074 3076 3077 3079 3080 3082 3082 3083 3084 3085 3086 3087 3088 3090 3091 3091 3092 3092 3093 3093 3094 3095 3096 3097 3098 3099 3100 3101 3102 3104 3105 3107 3106 3105 3105 3105 3105 3103 3095 3084 3084 3087 3088 3089 3091 3091 3093 3093 3094 3095 3095 3096 3096 3095 3095 3096
3033 3032 3032 3036 3038 3041 3043 3041 3039 3040 3040 3039 3040 3042 3044 3046 3047 3050 3052 3055 3056 3057 3059 3060 3061 3063 3064 3065 3066 3067 3068 3069 3071 3073 3074 3076 3078 3080 3081 3081 3082 3083 3084 3085 3086 3087 3088 3089 3089 3089 3090 3091 3092 3093 3093 3094 3095 3096 3097 3098 3099 3101 3102 3103 3102 3100 3101 3100 3098 3099 3093 3083 3081 3085 3085 3086 3087 3088 3089 3090 3091 3092 3091 3092 3092 3091 3092 3093
3027 3027 3029 3032 3033 3036 3037 3035 3034 3034 3034 3034 3036 3039 3041 3043 3045 3046 3049 3051 3052 3053 3055 3056 3057 3059 3060 3062 3063 3065 3066 3067 3069 3070 3071 3073 3075 3077 3078 3079 3080 3081 3082 3083 3084 3085 3086 3086 3086 3087 3088 3089 3089 3089 3090 3091 3092 3093 3093 3094 3096 3097 3098 3099 3098 3097 3098 3096 3094 3097 3092 3081 3079 3083 3082 3082 3084 3085 3086 3086 3087 3088 3088 3088 3088 3089 3090 3090
3021 3023 3024 3026 3028 3030 3030 3027 3026 3027 3027 3029 3032 3035 3037 3039 3041 3043 3045 3047 3048 3050 3051 3052 3054 3055 3056 3058 3060 3062 3064 3065 3066 3067 3069 3071 3072 3073 3075 3076 3077 3078 3079 3081 3082 3082 3083 3084 3085 3085 3086 3086 3086 3086 3086 3087 3088 3089 3090 3091 3092 3094 3095 3095 3095 3095 3094 3090 3091 3093 3086 3077 3078 3081 3079 3080 3082 3082 3083 3083 3083 3084 3084 3084 3084 3085 3086 3087
3016 3018 3019 3021 3023 3023 3022 3021 3020 3021 3022 3024 3027 3030 3033 3035 3037 3038 3041 3043 3045 3046 3048 3049 3050 3052 3054 3055 3057 3059 3061 3062 3064 3066 3067 3067 3068 3070 3072 3073 3074 3075 3076 3078 3079 3079 3080 3081 3081 3083 3083 3082 3082 3083 3083 3084 3086 3086 3087 3088 3089 3091 3092 3091 3091 3091 3087 3085 3088 3086 3077 3073 3078 3078 3076 3078 3080 3080 3081 3080 3080 3081 3080 3080 3080 3080 3081 3082
3010 3010 3012 3014 3016 3016 3016 3017 3017 3017 3018 3020 3023 3026 3029 3031 3032 3035 3037 3039 3041 3043 3044 3046 3047 3049 3050 3052 3054 3055 3057 3059 3061 3063 3064 3064 3066 3067 3069 3070 3071 3072 3073 3074 3075 3076 3077 3077 3077 3077 3077 3076 3076 3078 3080 3082 3083 3083 3083 3084 3085 3086 3086 3087 3086 3084 3081 3082 3081 3077 3072 3073 3076 3074 3074 3076 3077 3077 3078 3077 3076 3076 3075 3075 3075 3076 3076 3076
3005 3006 3007 3009 3010 3010 3011 3012 3014 3015 3016 3018 3019 3021 3024 3026 3028 3031 3033 3034 3036 3039 3041 3042 3044 3045 3046 3048 3050 3052 3054 3056 3058 3059 3060 3061 3063 3064 3066 3067 3068 3069 3070 3071 3072 3073 3073 3072 3072 3072 3072 3072 3072 3074 3077 3078 3078 3078 3079 3079 3079 3080 3080 3080 3079 3077 3079 3079 3073 3068 3070 3071 3070 3071 3072 3073 3074 3075 3074 3073 3071 3071 3070 3071 3071 3071 3072 3072
3001 3002 3004 3005 3006 3006 3007 3008 3010 3012 3014 3015 3016 3017 3020 3022 3024 3026 3028 3030 3032 3035 3037 3038 3039 3041 3043 3045 3046 3048 3051 3053 3054 3055 3056 3058 3060 3061 3062 3063 3064 3065 3066 3067 3068 3069 3069 3068 3067 3069 3069 3068 3068 3070 3072 3072 3073 3073 3073 3073 3073 3072 3071 3072 3072 3072 3075 3073 3064 3062 3067 3067 3065 3067 3069 3070 3071 3071 3069 3067 3067 3066 3067 3067 3067 3066 3066 3066
2998 2998 3000 3002 3003 3004 3005 3007 3008 3009 3011 3012 3013 3014 3016 3018 3020 3022 3025 3027 3029 3031 3033 3034 3035 3038 3040 3041 3043 3044 3047 3048 3049 3051 3053 3055 3057 3058 3058 3059 3060 3061 3062 3063 3064 3065 3065 3063 3063 3065 3064 3063 3064 3065 3067 3068 3068 3068 3068 3067 3065 3063 3064 3067 3067 3065 3066 3064 3060 3061 3063 3061 3060 3062 3064 3066 3066 3064 3064 3063 3062 3062 3062 3062 3061 3061 3061 3061
2994 2995 2997 2998 2999 3001 3003 3005 3006 3007 3008 3009 3010 3011 3013 3014 3016 3019 3021 3024 3026 3027 3029 3031 3033 3035 3037 3038 3039 3039 3041 3044 3046 3048 3050 3052 3053 3053 3054 3055 3056 3057 3058 3059 3059 3061 3060 3059 3059 3061 3060 3059 3059 3060 3062 3064 3064 3063 3063 3060 3056 3056 3059 3060 3058 3057 3058 3056 3055 3058 3058 3053 3054 3057 3059 3060 3060 3058 3059 3060 3058 3058 3058 3057 3056 3055 3055 3055
2991 2992 2993 2994 2995 2997 2999 3001 3003 3004 3005 3006 3007 3008 3010 3011 3013 3016 3018 3020 3022 3024 3026 3028 3030 3032 3033 3034 3034 3035 3038 3040 3042 3044 3046 3047 3048 3049 3050 3051 3052 3052 3053 3054 3055 3056 3056 3055 3055 3057 3057 3054 3055 3057 3058 3059 3061 3061 3056 3049 3047 3050 3052 3051 3050 3050 3051 3050 3051 3054 3051 3047 3049 3053 3054 3054 3054 3054 3055 3054 3054 3053 3052 3052 3051 3050 3050 3050
2987 2988 2990 2992 2992 2993 2995 2997 2999 3000 3000 3002 3004 3005 3007 3009 3011 3013 3015 3016 3018 3021 3023 3025 3027 3028 3029 3029 3030 3032 3035 3037 3038 3040 3042 3043 3044 3045 3046 3047 3047 3048 3049 3050 3051 3051 3052 3052 3052 3054 3053 3051 3052 3053 3054 3057 3059 3052 3043 3039 3043 3046 3046 3044 3044 3045 3045 3046 3047 3046 3044 3044 3047 3048 3048 3048 3049 3049 3049 3049 3049 3048 3048 3047 3046 3045 3045 3046